MIRANDA (X-4)

Satellite information

Favourite Embed

Satellite Type and Status

PAYLOADIN ORBIT

Key statistics

Satellite MIRANDA (X-4) at a glance.

Uptime

18857

Days in orbit

Revolutions

≈ 14.5

Per day

Orbit

SSO

Sun Synchronous Orbit

Inclination

97.8

Latest

Satellite identification and parameters

Extended collection of information and parameters for MIRANDA (X-4).

Object identification

Identified? True

Debris? False

Object name: MIRANDA (X-4)

International designator: 1974-013A

Object number (NORAD): 7213

Object ID (CCSDS): 7213

Country: UNITED KINGDOM (UK)

Current information (Y/N): Y

RCS size: MEDIUM

Orbital parameters

Period: 99.598 minutes

Inclination: 97.8293 deg

SMA: 7117.504 km

Apoapsis: 819.833 km

Periapsis: 658.906 km

RAAN: 165.3748 deg

Eccentricy: 0.011305

Argument of periapsis: 348.0754 deg

Mean anomaly: 11.7766 deg

Mean motion: 14.45809777 rev/day

Mean motion (dot): 0.00000824 rev/day2

B* drag term: 0.0002261 1/REarth

Two-line elements (TLE)

Creation date: Oct. 23, 2025, 10:06 p.m.

Reference frame: TEME

Reference center: EARTH

Epoch: Oct. 23, 2025, 2:20 p.m. UTC

TLE line 0: 0 MIRANDA (X-4)

TLE line 1: 1 7213U 74013A 25296.59758241 .00000824 00000-0 22610-3 0 9991

TLE line 2: 2 7213 97.8293 165.3748 0113050 348.0754 11.7766 14.45809777685445

Live tracking on map

Real-time ground track for satellite MIRANDA (X-4).

In-orbit conjunctions

There are no conjunctions computed for MIRANDA (X-4), at the moment. Check back to stay up to date, as we update our databases every day.

Go to all conjunctions

Associated space launch

British experimental satellite designed to test a three-axis gyro system for attitude control.

MIRANDA (X-4) was lifted into orbit during the mission ‘Scout D-1 | Miranda’, on board a Scout D-1 space rocket.

The launch took place on March 9, 1974, 2:22 a.m. from Space Launch Complex 5.

For more information about the launch, click the button.

Launch to space Scout D-1 | Miranda
Scout D-1 | Miranda

Agency: N/A

Status: Launch Successful

Launch date: March 9, 1974, 2:22 a.m. UTC

Rocket: Scout D-1

Launch pad: Space Launch Complex 5

Location: Vandenberg SFB, CA, USA

...

Latest news about this satellite

There are no fresh news available about this satellite. Check back as we update our databases every day.


Newsletter sign-up

Weekly statistics, charts and insights to help you stay on top of the space industry.